Voltar ao catálogo

STARLINK-34586

AtivoComunicaçõesSSO
NORAD 64950·PAYLOAD·🇺🇸 United States

Lançado Jul 26, 2025 de Vandenberg Space Force Base

Loading…

Próximas Passagens (próximas 24 horas)

TLE

AtualizadoSource: CelesTrak SupGP

Época: Sep 15, 2026, 03:05 UTC

1 64950C 25158U   26258.12895833  .00001165  00000+0  36158-4 0  2584
2 64950  97.2849 116.4529 0001575  97.5885  97.7823 15.33452511    10

Acompanhe STARLINK-34586 em tempo real com AllMySat

Download on the App Store